    Orbital elements:
    2022 AR2                                                 Earth MOID = 0.0043 AU
    Epoch 2022 Jan. 21.0 TT = JDT 2459600.5                 Veres                   
    M   7.83026              (2000.0)            P               Q                  
    n   0.54480803     Peri.  178.89395     -0.27280189     -0.91008643             
    a   1.4847057      Node   286.87702     +0.88016013     -0.10516238             
    e   0.3348735      Incl.   19.02650     +0.38845499     -0.40085355             
    P   1.81           H   27.68          G   0.15           U   6                  
    Residuals in seconds of arc
    220107 381  1.0+  0.2+    220107 L01  0.0   0.4-    220107 C95  0.6-  0.7+
    220107 381  0.2-  2.2-    220107 L01  0.2-  0.3-    220107 Z80  0.2+  0.6+
    220107 381  0.9+  3.2-    220107 L01  0.2+  0.0     220107 J69  0.3+  1.8+
    220107 381  0.0   0.6-    220107 L01  0.1+  0.0     220107 J69  0.7+  0.7+
    220107 381  0.3-  0.8+    220107 L01  0.1-  0.1+    220107 J69  0.3+  0.5-
    220107 381  0.0   1.1-    220107 L01  0.0   0.3+    220107 Z80  0.2-  0.0
    220107 381  0.4+  0.1+    220107 L01  0.2+  0.2-    220107 204  0.0   0.1-
    220107 381  0.6+  1.5-    220107 595  0.0   1.0+    220107 203  0.3-  0.2-
    220107 381  0.3-  3.4-    220107 595  0.0   0.1+    220107 204  0.1+  0.1+
    220107 381  0.4+  0.7+    220107 J95  0.0   0.9+    220107 203  0.0   0.0
    220107 P93  0.4+  0.5-    220107 595  0.3-  0.0     220107 204  0.1+  0.4-
    220107 P93  0.2-  1.3+    220107 J95  0.5+  0.5+    220107 203  0.1-  0.3-
    220107 P93  0.1+  0.1+    220107 J95  0.0   0.4+    220107 204 (0.5-  0.9+)
    220107 P93  0.1-  0.6+    220107 J95  0.0   0.4+    220107 Z99 (0.5-  2.2+)
    220107 P93  0.3-  1.8+    220107 J95  0.0   0.4+    220107 Z99  0.2+  0.2-
    220107 P93  0.1-  0.2-    220107 J95  0.0   0.2+    220107 Z99  0.2+  0.4-
    220107 P93  0.2+  0.2+    220107 Z80  0.2-  0.3+    220107 203  0.0   0.3-
    220107 P93  0.1-  0.6+    220107 B49  0.3-  1.5+    220107 033  0.1+  0.3-
    220107 P93  0.1-  2.2+    220107 B49  0.4-  1.5+    220107 033 (0.3-  2.3+)
    220107 L18  0.6+  0.7-    220107 B49  0.0   0.7+    220107 033  0.1-  0.2-
    220107 L18  0.4-  1.3-    220107 B49  0.1-  0.5+    220108 W33  0.0   2.1+
    220107 L18  0.8+  1.1-    220107 C95  0.4-  0.3-    220108 W33  0.1+  0.6+
    220107 L01  0.3+  0.4-    220107 Z80  0.7-  0.1-    220108 W33  0.4+  1.0+
    
    Ephemeris:
    2022 AR2                 a,e,i = 1.48, 0.33, 19                  q = 0.9875
    Date    TT    R. A. (2000) Decl.     Delta      r    Elong.  Phase     V
    2021 12 09    20 12 11.1 +67 49 47   0.1894  1.0257    97.1    72.4    26.7
    ...
    2021 12 24    20 13 58.8 +68 20 02   0.09663 0.9960    94.6    79.9    25.4
    ...
    2022 01 01    20 30 20.1 +70 48 39   0.04430 0.9887    95.7    81.8    23.7
    ...
    2022 01 07    05 04 35.3 +63 50 11   0.0059700.9875   133.6    46.1    18.3
    2022 01 08    06 35 08.4 -08 41 54   0.0050210.9876   147.5    32.4    17.5
    2022 01 09    07 06 06.8 -42 22 06   0.01020 0.9878   115.4    64.1    20.0
    ...
    2022 01 15    07 45 38.9 -61 29 52   0.04936 0.9911    97.3    79.9    23.9
    ...
    2022 01 23    07 54 37.9 -63 42 53   0.1016  1.0010    96.6    77.6    25.4
    ...
    2022 02 07    08 00 21.1 -63 48 18   0.1942  1.0352    99.2    70.1    26.7
    
    M. P. C. Staff               (C) Copyright 2022 MPC           M.P.E.C. 2022-A92
    


    Read MPEC 2022-A91 Read MPEC 2022-A93


    MPEC number:

    Enter an MPEC number in one of the following forms:

    • 1997-B01 (the full form)
    • J97B01 (the packed version of the full form)
    • B01 (the abbreviated form)